Location: Unspecified
(0.0000°N, 0.0000°E)
Time: 15:42:32
(UTC+00:00)

CUBEBUG 2 - Visible Passes

Search period start: 09 July 2020 00:00
Search period end: 19 July 2020 00:00
Orbit: 587 x 697 km, 97.6° (Epoch: 08 July)

Date Brightness Start Highest point End Pass type
(mag) Time Alt. Az. Time Alt. Az. Time Alt. Az.
09 Jul ? 03:31:51 10° NE 03:34:51 21° E 03:34:51 21° E visible
09 Jul ? 05:08:39 10° NW 05:11:30 17° WNW 05:12:28 16° W visible
10 Jul ? 03:54:55 10° NNE 03:59:04 45° E 03:59:04 45° E visible
11 Jul ? 04:18:41 10° N 04:23:09 80° WNW 04:23:16 79° WSW visible
12 Jul ? 04:43:03 10° NNW 04:47:06 35° WNW 04:47:29 34° W visible
13 Jul ? 03:31:26 10° NE 03:34:04 20° E 03:34:04 20° E visible
13 Jul ? 05:08:17 10° NW 05:11:01 16° WNW 05:11:41 16° W visible
14 Jul ? 03:54:29 10° NNE 03:58:17 43° E 03:58:17 43° E visible
15 Jul ? 04:18:15 10° N 04:22:29 77° NW 04:22:29 77° NW visible
16 Jul ? 04:42:38 10° NNW 04:46:36 34° WNW 04:46:41 34° W visible
17 Jul ? 03:31:00 10° NE 03:33:17 19° E 03:33:17 19° E visible
17 Jul ? 05:07:53 10° NW 05:10:31 16° WNW 05:10:54 16° W visible
18 Jul ? 03:54:02 10° NNE 03:57:29 41° ENE 03:57:29 41° ENE visible
